Location: Cherry Springs State Park
(41.6616°N, 77.8240°W)
Time: 05:22:48
(UTC-05:00)

Amateur Radio Satellites - All Passes

Search period start: 24 February 2017 04:52
Search period end: 25 February 2017 04:52
Location: Cherry Springs State Park, 41.6616°N, 77.8240°W

Satellite Date Start Highest point End Downlink Frequencies (MHz)
Time Altitude Azimuth
KKS-1 24 Feb 05:01:26 05:04:13 16° 268° (W) 05:07:00 437.445
M-CUBED/EXP-1 PRIME 24 Feb 05:01:28 05:04:21 28° 257° (WSW) 05:07:13 437.505
STRAND 1 24 Feb 05:04:15 05:05:25 11° 57° (ENE) 05:06:36 437.568
CUBESAT XI-V 24 Feb 05:13:44 05:17:21 22° 266° (W) 05:20:59 437.345
DOVE 4 24 Feb 05:26:42 05:30:20 22° 94° (E) 05:34:07 437.250
STARS 24 Feb 05:40:19 05:42:33 14° 269° (W) 05:44:48 437.465
CUTE-I 24 Feb 05:48:06 05:52:44 29° 95° (E) 05:57:20 437.470
AO-85 24 Feb 05:52:30 05:56:15 26° 312° (NW) 05:59:49 145.980
KAITUO 1B 24 Feb 06:04:37 06:08:06 34° 97° (E) 06:11:32 145.475/437.950
XW-2F 24 Feb 06:06:44 06:10:25 44° 99° (E) 06:14:03 145.980 - 146.000
XW-2D 24 Feb 06:10:24 06:14:10 53° 100° (E) 06:17:53 145.860 - 145.880
XW-2B 24 Feb 06:15:23 06:19:11 59° 100° (E) 06:22:56 145.730 - 145.750
BEESAT 3 24 Feb 06:15:41 06:19:18 39° 117° (ESE) 06:23:00 437.485
XW-2C 24 Feb 06:23:57 06:27:47 78° 102° (ESE) 06:31:35 145.795 - 145.815
CUTE 1.7 + AOD 2 24 Feb 06:38:15 06:39:46 12° 90° (E) 06:41:17 437.475
STRAND 1 24 Feb 06:38:35 06:43:42 79° 75° (ENE) 06:48:54 437.568
LilacSat-2 24 Feb 06:39:15 06:43:05 64° 284° (WNW) 06:46:52 437.200
AO-7 24 Feb 06:40:37 06:44:36 15° 315° (NW) 06:48:37 .
NUDT-PHONESAT 24 Feb 06:41:09 06:44:56 78° 284° (WNW) 06:48:40 437.300
XW-2A 24 Feb 06:44:30 06:46:57 18° 94° (E) 06:49:22 145.665 - 145.685
BEESAT 2 24 Feb 06:50:40 06:54:19 38° 117° (ESE) 06:58:03 435.950
HO-68 24 Feb 06:56:35 07:02:38 29° 95° (E) 07:08:37 435.675
SO-50 24 Feb 06:59:42 07:04:05 49° 52° (NE) 07:08:26 436.795
DOVE 4 24 Feb 07:03:45 07:08:06 40° 289° (WNW) 07:12:42 437.250
ISS 24 Feb 07:16:59 07:18:13 12° 129° (SE) 07:19:26 437.550
UWE-3 24 Feb 07:22:06 07:23:29 11° 88° (E) 07:24:50 435.000/436.395/437.385
CUTE-I 24 Feb 07:27:54 07:32:49 37° 292° (WNW) 07:37:43 437.470
AAUSAT CUBESAT 2 24 Feb 07:31:03 07:33:23 15° 91° (E) 07:35:42 437.432
SEEDS 24 Feb 07:36:21 07:40:12 35° 97° (E) 07:44:00 437.485
KAITUO 1B 24 Feb 07:39:27 07:41:51 16° 293° (WNW) 07:44:14 145.475/437.950
XW-2F 24 Feb 07:42:15 07:44:10 14° 295° (WNW) 07:46:04 145.980 - 146.000
Tancredo 1 24 Feb 07:44:29 07:47:06 23° 134° (SE) 07:49:44 437.200
ZACube-1 24 Feb 07:46:09 07:47:46 12° 89° (E) 07:49:21 437.345
XW-2D 24 Feb 07:46:29 07:47:53 12° 296° (WNW) 07:49:18 145.860 - 145.880
O/OREOS (USA 219) 24 Feb 07:48:52 07:52:24 22° 56° (ENE) 07:55:57 437.305
XW-2B 24 Feb 07:51:59 07:52:52 11° 297° (WNW) 07:53:45 145.730 - 145.750
BEESAT 3 24 Feb 07:54:01 07:57:03 21° 315° (NW) 08:00:08 437.485
CUTE 1.7 + AOD 2 24 Feb 08:11:49 08:15:59 58° 285° (WNW) 08:20:06 437.475
CUBEBUG 2 24 Feb 08:15:21 08:20:06 67° 101° (E) 08:24:48 437.445
FO-29 24 Feb 08:16:16 08:20:37 17° 53° (NE) 08:25:07 435.910
XW-2A 24 Feb 08:16:49 08:19:42 25° 290° (WNW) 08:22:34 145.665 - 145.685
STRAND 1 24 Feb 08:21:30 08:23:28 12° 271° (W) 08:25:27 437.568
UNISAT 6 24 Feb 08:24:15 08:27:24 19° 64° (ENE) 08:30:35 437.425
TIGRISAT 24 Feb 08:25:08 08:28:09 18° 64° (ENE) 08:31:13 435.000
BEESAT 2 24 Feb 08:29:07 08:32:14 22° 314° (NW) 08:35:24 435.950
AO-73 24 Feb 08:33:22 08:37:32 34° 96° (E) 08:41:37 145.935
PRISM 24 Feb 08:37:55 08:41:56 61° 74° (ENE) 08:45:58 437.425
SO-50 24 Feb 08:41:05 08:44:10 18° 249° (WSW) 08:47:14 436.795
Oscar 11 24 Feb 08:41:52 08:45:52 35° 97° (E) 08:49:49 .
HO-68 24 Feb 08:43:43 08:50:39 55° 292° (WNW) 08:57:33 435.675
ISS 24 Feb 08:50:55 08:54:13 81° 326° (NW) 08:57:32 437.550
UWE-3 24 Feb 08:55:45 09:00:27 74° 284° (WNW) 09:05:02 435.000/436.395/437.385
AAUSAT CUBESAT 2 24 Feb 09:05:09 09:09:04 44° 287° (WNW) 09:12:58 437.432
SEEDS 24 Feb 09:12:37 09:15:39 20° 293° (WNW) 09:18:40 437.485
DELFI C3 24 Feb 09:15:00 09:18:16 25° 95° (E) 09:21:31 145.870
ZACube-1 24 Feb 09:19:56 09:24:30 68° 286° (WNW) 09:28:58 437.345
Tancredo 1 24 Feb 09:20:06 09:23:13 43° 331° (NNW) 09:26:22 437.200
O/OREOS (USA 219) 24 Feb 09:27:40 09:31:58 41° 254° (WSW) 09:36:16 437.305
YUBILEINY 24 Feb 09:36:25 09:44:02 34° 84° (E) 09:51:38 435.215
EO-79 24 Feb 09:42:32 09:43:22 11° 61° (ENE) 09:44:14 145.935-145.965
CUBEBUG 2 24 Feb 09:53:34 09:56:08 15° 298° (WNW) 09:58:42 437.445
FO-29 24 Feb 09:57:13 10:04:15 76° 73° (ENE) 10:12:00 435.910
POLYITAN 1 24 Feb 09:57:43 10:00:17 16° 64° (ENE) 10:02:53 437.675
NANOSAT C BR1 24 Feb 09:58:41 10:01:02 15° 64° (ENE) 10:03:25 145.865
UNISAT 6 24 Feb 09:59:26 10:03:43 45° 261° (W) 10:08:09 437.425
TIGRISAT 24 Feb 10:00:06 10:04:25 48° 261° (W) 10:08:53 435.000
QB50P2 24 Feb 10:00:17 10:03:09 18° 65° (ENE) 10:06:03 145.880/145.840
AO-73 24 Feb 10:09:57 10:13:34 24° 293° (WNW) 10:17:07 145.935
PRISM 24 Feb 10:16:46 10:17:37 10° 270° (W) 10:18:26 437.425
Oscar 11 24 Feb 10:18:32 10:21:45 21° 294° (WNW) 10:24:59 .
ISS 24 Feb 10:28:35 10:31:05 20° 344° (NNW) 10:33:37 437.550
ESTCUBE 1 24 Feb 10:30:06 10:32:00 12° 90° (E) 10:33:55 437.505/2401.250
HO-68 24 Feb 10:35:09 10:36:49 11° 312° (NW) 10:38:29 435.675
BUGSAT 1 24 Feb 10:35:10 10:36:22 11° 62° (ENE) 10:37:34 437.445
AIST 2D 24 Feb 10:35:16 10:38:45 61° 76° (ENE) 10:42:18 435.315
DELFI C3 24 Feb 10:49:48 10:52:59 24° 291° (WNW) 10:56:08 145.870
Tancredo 1 24 Feb 10:58:02 11:00:08 16° 350° (N) 11:02:14 437.200
DUCHIFAT 1 24 Feb 11:04:58 11:09:09 70° 75° (ENE) 11:13:22 145.980
EO-79 24 Feb 11:14:18 11:18:30 76° 257° (WSW) 11:22:46 145.935-145.965
SPROUT 24 Feb 11:19:11 11:20:02 10° 89° (E) 11:20:53 437.525
POLYITAN 1 24 Feb 11:31:36 11:35:40 47° 260° (W) 11:39:49 437.675
YUBILEINY 24 Feb 11:31:52 11:40:26 53° 284° (WNW) 11:49:01 435.215
NANOSAT C BR1 24 Feb 11:32:14 11:36:19 51° 260° (W) 11:40:28 145.865
QB50P2 24 Feb 11:34:39 11:38:38 41° 262° (W) 11:42:40 145.880/145.840
FO-29 24 Feb 11:44:51 11:50:02 21° 273° (W) 11:55:36 435.910
ESTCUBE 1 24 Feb 12:04:46 12:09:13 61° 286° (WNW) 12:13:36 437.505/2401.250
ISS 24 Feb 12:06:31 12:08:29 15° 4° (N) 12:10:28 437.550
BUGSAT 1 24 Feb 12:07:08 12:11:09 66° 259° (W) 12:15:14 437.445
AO-7 24 Feb 12:08:19 12:09:22 10° 39° (NE) 12:10:25 .
Oscar 19 24 Feb 12:19:25 12:24:19 47° 71° (ENE) 12:29:15 437.125/150
50 SAT 24 Feb 12:28:14 12:31:38 54° 100° (E) 12:35:02 437.505
DX 1 24 Feb 12:30:54 12:34:54 35° 98° (E) 12:38:54 434.975-435.025
VELOX 1 24 Feb 12:35:11 12:39:38 88° 279° (W) 12:44:03 145.980
Tancredo 1 24 Feb 12:35:15 12:37:23 16° 11° (N) 12:39:31 437.200
AO-85 24 Feb 12:42:35 12:46:05 30° 50° (NE) 12:49:35 145.980
UKube-1 24 Feb 12:45:22 12:49:23 36° 98° (E) 12:53:21 .
SPROUT 24 Feb 12:52:06 12:56:23 68° 286° (WNW) 13:00:40 437.525
ITAMSAT 1 24 Feb 12:54:44 12:56:06 11° 57° (ENE) 12:57:30 435.822/435.867
Gurwin Techsat 1B 24 Feb 12:54:49 12:59:59 56° 72° (ENE) 13:05:12 435.225
ISS 24 Feb 13:42:46 13:45:44 30° 24° (NNE) 13:48:41 437.550
AO-7 24 Feb 13:52:12 13:59:58 45° 61° (ENE) 14:07:44 .
ITUPSAT 1 24 Feb 13:58:29 14:01:25 16° 92° (E) 14:04:19 437.325
Oscar 19 24 Feb 14:00:01 14:03:52 21° 267° (W) 14:07:44 437.125/150
BEESAT 24 Feb 14:05:26 14:08:51 19° 93° (E) 14:12:14 436.000
DX 1 24 Feb 14:07:34 14:10:52 22° 294° (WNW) 14:14:11 434.975-435.025
Tancredo 1 24 Feb 14:11:07 14:14:16 47° 30° (NNE) 14:17:23 437.200
UKube-1 24 Feb 14:21:57 14:25:09 21° 294° (WNW) 14:28:22 .
AO-85 24 Feb 14:23:10 14:26:19 23° 246° (WSW) 14:29:30 145.980
ITAMSAT 1 24 Feb 14:29:29 14:34:40 79° 76° (ENE) 14:39:56 435.822/435.867
BEESAT 3 24 Feb 14:32:17 14:35:45 27° 48° (NE) 14:39:10 437.485
MOZHAYETS 4 24 Feb 14:36:34 14:39:02 14° 90° (E) 14:41:29
Gurwin Techsat 1B 24 Feb 14:36:39 14:40:17 19° 268° (W) 14:43:56 435.225
BEESAT 2 24 Feb 15:08:08 15:11:37 27° 48° (NE) 15:15:06 435.950
ISS 24 Feb 15:19:09 15:22:16 40° 221° (SW) 15:25:21 437.550
ITUPSAT 1 24 Feb 15:34:52 15:39:34 55° 288° (WNW) 15:44:14 437.325
BEESAT 24 Feb 15:42:16 15:46:50 45° 289° (WNW) 15:51:22 436.000
AO-7 24 Feb 15:44:50 15:52:41 44° 260° (W) 16:00:36 .
Tancredo 1 24 Feb 15:47:53 15:50:20 20° 226° (SW) 15:52:45 437.200
BEESAT 3 24 Feb 16:09:49 16:13:20 29° 245° (WSW) 16:16:48 437.485
MOZHAYETS 4 24 Feb 16:12:01 16:16:33 57° 287° (WNW) 16:21:01
ITAMSAT 1 24 Feb 16:12:39 16:14:44 12° 271° (W) 16:16:51 435.822/435.867
PCSat 24 Feb 16:26:23 16:31:46 74° 117° (ESE) 16:37:11 145.827
RS-15 24 Feb 16:27:29 16:37:53 38° 105° (ESE) 16:48:38 29.354- 29.394
DOVE 4 24 Feb 16:33:23 16:36:19 19° 66° (ENE) 16:39:17 437.250
M-CUBED/EXP-1 PRIME 24 Feb 16:39:44 16:41:29 13° 99° (E) 16:43:17 437.505
KAITUO 1B 24 Feb 16:45:32 16:48:09 18° 67° (ENE) 16:50:48 145.475/437.950
BEESAT 2 24 Feb 16:45:50 16:49:24 30° 245° (WSW) 16:52:55 435.950
XW-2F 24 Feb 16:48:11 16:51:13 23° 69° (ENE) 16:54:17 145.980 - 146.000
KKS-1 24 Feb 16:49:55 16:54:24 88° 293° (WNW) 16:58:54 437.445
XW-2D 24 Feb 16:52:00 16:55:14 26° 70° (ENE) 16:58:31 145.860 - 145.880
XW-2B 24 Feb 16:56:54 17:00:14 29° 71° (ENE) 17:03:37 145.730 - 145.750
XW-2C 24 Feb 17:05:15 17:08:48 37° 72° (ENE) 17:12:24 145.795 - 145.815
CUBESAT XI-V 24 Feb 17:08:36 17:13:14 90° 98° (E) 17:17:49 437.345
CUTE-I 24 Feb 17:09:56 17:15:01 48° 70° (ENE) 17:20:09 437.470
NUDT-PHONESAT 24 Feb 17:20:29 17:24:05 45° 73° (ENE) 17:27:43 437.300
LilacSat-2 24 Feb 17:20:47 17:24:36 61° 74° (ENE) 17:28:27 437.200
NO-84 24 Feb 17:24:18 17:27:31 76° 135° (SE) 17:31:03 435.350 FM
HO-68 24 Feb 17:26:24 17:31:47 24° 57° (ENE) 17:37:11 435.675
STARS 24 Feb 17:26:40 17:31:07 80° 283° (WNW) 17:35:32 437.465
DOVE 4 24 Feb 18:10:01 18:13:48 34° 263° (W) 18:17:38 437.250
PCSat 24 Feb 18:11:49 18:15:44 20° 316° (NW) 18:19:42 145.827
M-CUBED/EXP-1 PRIME 24 Feb 18:12:28 18:16:06 49° 291° (WNW) 18:20:00 437.505
KAITUO 1B 24 Feb 18:18:31 18:21:57 32° 263° (W) 18:25:25 145.475/437.950
XW-2F 24 Feb 18:22:03 18:25:15 25° 265° (W) 18:28:30 145.980 - 146.000
AAUSAT CUBESAT 2 24 Feb 18:22:49 18:24:00 11° 62° (ENE) 18:25:11 437.432
XW-2D 24 Feb 18:26:25 18:29:24 21° 266° (W) 18:32:25 145.860 - 145.880
SEEDS 24 Feb 18:28:15 18:31:45 26° 69° (ENE) 18:35:15 437.485
XW-2B 24 Feb 18:31:38 18:34:28 19° 266° (W) 18:37:19 145.730 - 145.750
RS-15 24 Feb 18:37:39 18:49:36 69° 308° (NW) 19:02:00 29.354- 29.394
XW-2C 24 Feb 18:40:50 18:43:09 15° 268° (W) 18:45:29 145.795 - 145.815
ZACube-1 24 Feb 18:43:29 18:44:09 10° 60° (ENE) 18:44:48 437.345
XW-2A 24 Feb 18:47:35 18:50:58 76° 258° (WSW) 18:54:24 145.665 - 145.685
STRAND 1 24 Feb 18:49:24 18:53:43 26° 95° (E) 18:58:00 437.568
CUBESAT XI-V 24 Feb 18:49:29 18:49:51 10° 300° (WNW) 18:50:14 437.345
CUTE-I 24 Feb 18:51:13 18:55:18 22° 267° (W) 18:59:24 437.470
NUDT-PHONESAT 24 Feb 18:56:46 18:58:16 12° 269° (W) 18:59:47 437.300
NO-84 24 Feb 19:03:01 19:05:37 19° 338° (NNW) 19:08:22 435.350 FM
CUTE 1.7 + AOD 2 24 Feb 19:03:59 19:08:16 84° 257° (WSW) 19:12:35 437.475
HO-68 24 Feb 19:11:40 19:18:50 73° 256° (WSW) 19:26:01 435.675
CUBEBUG 2 24 Feb 19:13:16 19:17:34 54° 73° (ENE) 19:22:02 437.445
AO-73 24 Feb 19:28:53 19:32:40 28° 68° (ENE) 19:36:31 145.935
Oscar 11 24 Feb 19:36:47 19:40:31 29° 69° (ENE) 19:44:16 .
YUBILEINY 24 Feb 19:46:44 19:51:52 17° 59° (ENE) 19:56:59 435.215
UWE-3 24 Feb 19:52:18 19:56:45 89° 62° (ENE) 20:01:21 435.000/436.395/437.385
AAUSAT CUBESAT 2 24 Feb 19:54:44 19:58:53 69° 259° (W) 20:03:02 437.432
DELFI C3 24 Feb 20:01:30 20:03:55 16° 66° (ENE) 20:06:22 145.870
SEEDS 24 Feb 20:03:44 20:07:21 27° 265° (W) 20:10:59 437.485
ZACube-1 24 Feb 20:15:12 20:19:39 87° 260° (W) 20:24:14 437.345
STRAND 1 24 Feb 20:28:13 20:32:58 38° 292° (WNW) 20:37:40 437.568
NO-84 24 Feb 20:43:20 20:44:35 11° 359° (N) 20:45:50 435.350 FM
CUBEBUG 2 24 Feb 20:52:07 20:54:33 14° 270° (W) 20:57:01 437.445
RS-15 24 Feb 20:54:49 21:05:00 29° 338° (NNW) 21:15:20 29.354- 29.394
AO-73 24 Feb 21:04:59 21:08:49 28° 265° (W) 21:12:44 145.935
HO-68 24 Feb 21:05:30 21:07:41 11° 274° (W) 21:09:53 435.675
FO-29 24 Feb 21:10:57 21:13:16 12° 81° (E) 21:15:31 435.910
Oscar 11 24 Feb 21:12:59 21:16:36 25° 265° (W) 21:20:15 .
SO-50 24 Feb 21:15:51 21:18:29 15° 109° (ESE) 21:21:08 436.795
ESTCUBE 1 24 Feb 21:30:11 21:32:17 13° 62° (ENE) 21:34:24 437.505/2401.250
DELFI C3 24 Feb 21:34:39 21:38:24 40° 262° (W) 21:42:09 145.870
YUBILEINY 24 Feb 21:41:28 21:50:15 79° 81° (E) 21:58:56 435.215
UNISAT 6 24 Feb 21:50:42 21:55:06 37° 97° (E) 21:59:25 437.425
TIGRISAT 24 Feb 21:51:17 21:55:37 35° 97° (E) 21:59:52 435.000
PRISM 24 Feb 21:53:59 21:58:05 83° 283° (WNW) 22:02:09 437.425
O/OREOS (USA 219) 24 Feb 22:01:49 22:05:12 21° 102° (ESE) 22:08:36 437.305
NO-84 24 Feb 22:20:51 22:23:36 18° 21° (NNE) 22:26:29 435.350 FM
DUCHIFAT 1 24 Feb 22:51:10 22:52:21 11° 90° (E) 22:53:30 145.980
FO-29 24 Feb 22:52:03 22:59:45 70° 101° (E) 23:06:40 435.910
SO-50 24 Feb 22:53:48 22:58:27 64° 305° (NW) 23:03:04 436.795
EO-79 24 Feb 22:59:42 23:02:33 17° 93° (E) 23:05:23 145.935-145.965
50 SAT 24 Feb 23:02:53 23:05:39 22° 69° (ENE) 23:08:25 437.505
ESTCUBE 1 24 Feb 23:04:02 23:08:31 67° 258° (WSW) 23:13:02 437.505/2401.250
RS-15 24 Feb 23:13:24 23:23:08 25° 13° (NNE) 23:32:44 29.354- 29.394
POLYITAN 1 24 Feb 23:16:23 23:20:01 26° 95° (E) 23:23:38 437.675
NANOSAT C BR1 24 Feb 23:16:37 23:20:06 24° 95° (E) 23:23:34 145.865
QB50P2 24 Feb 23:19:12 23:23:00 30° 96° (E) 23:26:47 145.880/145.840
DX 1 24 Feb 23:26:34 23:30:24 32° 69° (ENE) 23:34:14 434.975-435.025
UNISAT 6 24 Feb 23:27:52 23:31:33 23° 294° (WNW) 23:35:14 437.425
TIGRISAT 24 Feb 23:28:18 23:32:05 25° 293° (WNW) 23:35:51 435.000
VELOX 1 24 Feb 23:32:16 23:36:39 83° 73° (ENE) 23:41:02 145.980
PCSat 24 Feb 23:32:38 23:34:54 12° 36° (NE) 23:37:09 145.827
AIST 2D 24 Feb 23:33:20 23:36:54 75° 101° (E) 23:40:27 435.315
YUBILEINY 24 Feb 23:39:57 23:45:58 21° 281° (W) 23:51:58 435.215
UKube-1 24 Feb 23:39:59 23:43:46 32° 69° (ENE) 23:47:36 .
O/OREOS (USA 219) 24 Feb 23:40:12 23:44:20 36° 299° (WNW) 23:48:32 437.305
SPROUT 24 Feb 23:45:11 23:49:26 89° 246° (WSW) 23:53:44 437.525
BUGSAT 1 24 Feb 23:49:24 23:52:17 18° 93° (E) 23:55:09 437.445
NO-84 24 Feb 23:57:51 00:01:56 63° 39° (NE) 00:06:16 435.350 FM
DUCHIFAT 1 25 Feb 00:24:11 00:28:26 64° 285° (WNW) 00:32:38 145.980
Oscar 19 25 Feb 00:31:56 00:35:00 16° 91° (E) 00:38:03 437.125/150
EO-79 25 Feb 00:34:26 00:38:29 41° 289° (WNW) 00:42:30 145.935-145.965
50 SAT 25 Feb 00:35:59 00:38:42 21° 265° (W) 00:41:25 437.505
FO-29 25 Feb 00:37:57 00:43:59 26° 301° (WNW) 00:49:40 435.910
SO-50 25 Feb 00:38:04 00:39:49 12° 325° (NW) 00:41:33 436.795
NANOSAT C BR1 25 Feb 00:52:04 00:55:48 29° 291° (WNW) 00:59:29 145.865
POLYITAN 1 25 Feb 00:52:05 00:55:45 27° 291° (WNW) 00:59:22 437.675
QB50P2 25 Feb 00:55:11 00:58:39 24° 293° (WNW) 01:02:05 145.880/145.840
DX 1 25 Feb 01:03:10 01:06:36 23° 265° (W) 01:10:03 434.975-435.025
ITUPSAT 1 25 Feb 01:05:18 01:08:47 20° 64° (ENE) 01:12:18 437.325
Gurwin Techsat 1B 25 Feb 01:11:30 01:15:33 22° 93° (E) 01:19:34 435.225
BEESAT 25 Feb 01:11:55 01:15:42 24° 65° (ENE) 01:19:30 436.000
PCSat 25 Feb 01:14:03 01:19:27 61° 58° (ENE) 01:24:48 145.827
UKube-1 25 Feb 01:16:26 01:19:50 23° 265° (W) 01:23:14 .
BUGSAT 1 25 Feb 01:23:48 01:27:47 40° 289° (WNW) 01:31:45 437.445
RS-15 25 Feb 01:27:28 01:39:31 53° 45° (NE) 01:51:04 29.354- 29.394
NO-84 25 Feb 01:36:15 01:39:23 20° 234° (SW) 01:42:37 435.350 FM
MOZHAYETS 4 25 Feb 01:38:50 01:41:31 15° 63° (ENE) 01:44:12
AO-7 25 Feb 01:57:56 01:59:24 10° 86° (E) 02:00:52 .
Oscar 19 25 Feb 02:09:40 02:14:44 62° 287° (WNW) 02:19:46 437.125/150
CUBESAT XI-V 25 Feb 02:39:15 02:39:41 10° 60° (ENE) 02:40:09 437.345
ITUPSAT 1 25 Feb 02:41:40 02:46:17 46° 261° (W) 02:50:56 437.325
ITAMSAT 1 25 Feb 02:42:37 02:47:03 27° 95° (E) 02:51:27 435.822/435.867
BEESAT 25 Feb 02:48:49 02:53:16 38° 262° (W) 02:57:44 436.000
Gurwin Techsat 1B 25 Feb 02:50:37 02:55:43 48° 290° (WNW) 03:00:49 435.225
PCSat 25 Feb 02:58:36 03:02:19 19° 255° (WSW) 03:06:03 145.827
MOZHAYETS 4 25 Feb 03:13:36 03:18:10 59° 260° (W) 03:22:47
M-CUBED/EXP-1 PRIME 25 Feb 03:26:40 03:28:24 14° 61° (ENE) 03:30:08 437.505
RS-15 25 Feb 03:40:26 03:52:07 54° 249° (WSW) 04:03:19 29.354- 29.394
AO-7 25 Feb 03:45:26 03:53:42 65° 104° (ESE) 04:01:54 .
KKS-1 25 Feb 03:47:48 03:52:13 86° 74° (ENE) 03:56:41 437.445
CUBESAT XI-V 25 Feb 04:11:38 04:16:18 88° 84° (E) 04:20:59 437.345
ITAMSAT 1 25 Feb 04:21:46 04:26:34 38° 292° (WNW) 04:31:21 435.822/435.867
STARS 25 Feb 04:23:04 04:27:25 88° 248° (WSW) 04:31:50 437.465
AO-85 25 Feb 04:36:26 04:41:01 88° 303° (WNW) 04:45:16 145.980
